Location: *
(23.4719°S, 53.0889°W)
Time: 23:14:45
(UTC+00:00)

Daily predictions for brighter satellites

Satellite Brightness Start Highest point End
(mag) Time Altitude Azimuth Time Altitude Azimuth Time Altitude Azimuth
CSL-04 Rocket 4.4 22:17:44 10° SE 22:22:38 31° E 22:27:30 10° NNE
Mugunghwa Rocket 4.1 22:17:49 10° WSW 22:24:32 81° SSE 22:30:52 10° E
Cosmos 1812 3.5 22:21:59 10° NNW 22:25:47 59° W 22:29:38 10° S
SL-27 R/B 2.3 22:25:28 10° N 22:28:46 63° ENE 22:32:11 10° SSE
CRYOSAT 2 4.4 22:24:10 10° S 22:29:07 86° E 22:34:01 10° N
Meteor 1-27 Rocket 3.9 22:23:30 10° N 22:29:18 87° W 22:35:17 10° S
Cosmos 2084 Rocket 3.6 22:27:30 10° SSW 22:31:46 80° WNW 22:36:00 10° NNE
Cosmos 2344 4.3 22:21:04 10° SSW 22:33:12 69° ESE 22:41:53 10° NE
Cosmos 2278 4.1 22:28:06 10° S 22:33:35 45° ESE 22:39:01 10° NE
Cosmos 1666 4.0 22:32:48 10° SSE 22:35:45 21° E 22:38:41 10° NE
Cosmos 2242 Rocket 3.8 22:32:35 10° NNE 22:37:02 52° E 22:41:29 10° SSE
Centaur D-1AR AC-36 4.3 22:34:39 10° NNE 22:37:42 15° NE 22:42:28 11° E
Cosmos 1777 Rocket 4.0 22:32:53 10° N 22:38:01 64° ENE 22:43:12 10° SSE
H-2A R/B 2.0 22:31:41 10° WSW 22:38:10 42° S 22:40:14 12° E
Cosmos 1703 Rocket 4.4 22:34:32 10° NNE 22:38:25 29° E 22:42:20 10° SSE
GPS 2-05 Rocket1 1.8 22:37:50 10° SW 22:40:05 61° SSE 22:41:41 16° ENE
Sakura Rocket 4.4 22:33:38 10° NW 22:40:10 40° NNE 22:44:35 12° E
NOSS 3-4 (A) 4.5 22:33:57 10° SW 22:40:13 49° WNW 22:46:00 10° N
NOSS 3-4 (C) 4.4 22:34:00 10° SW 22:40:17 50° WNW 22:46:07 10° N
SEDSat Delta rocket 4.3 22:40:25 10° NNW 22:43:27 20° NNE 22:45:39 14° ENE
CZ-2C R/B 3.3 22:39:53 10° NE 22:44:27 31° ESE 22:49:01 10° SSE
CSL-04 Debris 4.3 22:39:57 10° SSE 22:45:18 55° ENE 22:50:35 10° N
Cosmos 1441 Rocket 3.5 22:44:12 10° SSW 22:47:58 69° W 22:51:44 10° N
Abrixas rocket 2.3 22:50:30 10° NNW 22:53:19 42° NE 22:55:15 17° ESE
NOAA 11 4.2 22:48:29 10° SSE 22:54:02 86° E 22:59:31 10° NNW
Centaur AC-69 3.4 22:53:12 10° WNW 22:55:50 24° N 22:56:42 19° NNE
Cosmos 2369 4.1 22:52:37 10° SSW 22:58:19 67° WNW 23:03:59 10° N
SL-4 R/B 2.9 22:54:52 10° N 22:58:19 26° NE 22:59:28 22° E
Cosmos 2322 Rocket 4.1 22:57:50 10° SE 22:59:03 11° ESE 22:59:30 11° ESE
MOS 1 Rocket 3.9 23:00:49 14° NE 23:04:43 40° ESE 23:09:38 10° S
GPS 2-17 Rocket1 3.2 23:02:26 10° WNW 23:06:45 53° N 23:08:47 28° ENE
HJ-1C 3.4 23:04:40 10° SSE 23:07:59 53° E 23:11:14 10° N
Cosmos 1536 2.7 23:04:41 10° S 23:08:43 88° ESE 23:12:43 10° N
RESURS DK-1 3.2 23:05:32 10° S 23:09:13 30° ESE 23:09:58 28° E
Shenzhou-11 Module 3.7 23:07:57 10° W 23:10:09 23° NW 23:11:18 17° N
Cosmos 2360 4.4 23:06:45 10° SSW 23:12:30 76° WNW 23:18:12 10° NNE
H-2A R/B 2.9 23:08:13 10° SE 23:12:33 27° E 23:13:01 27° ENE
Cosmos 1908 Rocket 3.8 23:08:55 10° S 23:13:07 44° E 23:15:01 27° NE
H-II Stage 2 1.5 23:12:52 10° WNW 23:15:05 67° NNE 23:17:16 27° E
Centaur AC-125 2.5 23:07:47 10° WSW 23:15:57 77° NNW 23:17:03 39° ENE
Cosmos 1697 Rocket 4.0 23:13:35 10° SW 23:18:49 40° WNW 23:24:01 10° N
Stardust Del rocket 4.0 23:12:18 10° WNW 23:20:15 67° N 23:21:53 38° ENE
Cosmos 1980 Rocket 2.4 23:23:23 10° SSW 23:29:06 70° WNW 23:34:02 14° N
GP-B 3.1 23:28:22 10° SSE 23:32:47 56° E 23:33:13 53° ENE
Cosmos 773 Rocket 4.1 23:27:43 10° S 23:32:58 57° ESE 23:34:17 44° NE
Nadezhda 4 Rocket 3.9 23:33:52 10° N 23:40:11 81° E 23:46:32 10° S
MOS 1 4.3 23:35:42 10° SSE 23:41:19 54° ENE 23:43:05 39° NNE
Cosmos 2279 Rocket 4.2 23:40:13 10° S 23:46:31 72° W 23:52:43 10° N
Cosmos 1743 3.7 23:46:07 10° S 23:48:44 40° S 23:48:44 40° S
DELTA 2 R/B (1) 3.5 23:44:38 10° WSW 23:50:16 77° NW 23:51:11 62° NNE
ARGOS 3.2 23:48:53 10° SSE 23:53:32 57° ESE 23:53:32 57° ESE
